User: anonymous   Login
Location: Unspecified
(0.0000°N, 0.0000°E)
Time: 16:04:46
(UTC+01:00)
Language:

Sapphire - Orbit

View from above orbital plane
View from above orbital plane
View from above satellite
View from above satellite

Ground track
Ground track

The orbit data is extracted from the following two-line orbital elements,

1 26932U 01043D   16037.15527886  .00000009  00000-0  35224-4 0  9998
2 26932  67.0567 295.1907 0008415 283.8265  76.1900 14.30194735749291
Epoch (UTC): 06 February 2016 03:43:36
Eccentricity: 0.0008415
inclination: 67.0567°
perigee height: 785 km
apogee height: 797 km
right ascension of ascending node: 295.1907°
argument of perigee: 283.8265°
revolutions per day: 14.30194735
mean anomaly at epoch: 76.1900°
orbit number at epoch: 74929

The dashed part of the orbit path shows where the satellite is in the earth's shadow,  

DLR